User: anonymous   Login
Location: Pine Mountain Observatory
(43.7910°N, 120.9377°W)
Time: 23:26:16
(UTC-07:00)
Language:

APEX - Orbit

View from above orbital plane
View from above orbital plane
View from above satellite
View from above satellite

Ground track
Ground track

The orbit data is extracted from the following two-line orbital elements,

1 23191U 94046A   15216.78297270  .00019441  00000-0  73108-3 0  9997
2 23191 069.9313 343.8557 0669207 105.3589 007.6989 14.21365387 18924
Epoch (UTC): 04 August 2015 18:47:28
Eccentricity: 0.0669207
inclination: 69.9313°
perigee height: 339 km
apogee height: 1302 km
right ascension of ascending node: 343.8557°
argument of perigee: 105.3589°
revolutions per day: 14.21365387
mean anomaly at epoch: 7.6989°
orbit number at epoch: 1892

The dashed part of the orbit path shows where the satellite is in the earth's shadow,  

DLR